#timestamp,LO_Frequency,Hit,StdDev 
1512514815.4,286046995.8,N
1512514835.2,286046998.4,N
1512514855.1,286046996.7,N
1512514856.0,286046996.7,N
1512514875.8,286047000.3,N
1512514895.6,286046999.3,N
1512514915.5,286046998.7,N
1512514935.3,286046998.8,N
1512514955.2,286046998.2,N
1512514975.9,286047002.6,N
1512514995.7,286047001.4,N
1512515015.6,286047002.2,N
1512515035.4,286047005.9,N
1512515055.2,286047001.6,N
1512515075.1,286046999.0,N
1512515076.0,286046999.0,N
1512515095.8,286047000.5,N
1512515115.7,286046999.9,N
1512515135.5,286047002.8,N
1512515155.3,286046999.0,N
1512515175.2,286047004.3,N
1512515195.0,286047000.0,N
1512515195.9,286047000.0,N
1512515215.8,286047005.9,N
1512515235.6,286047001.7,N
1512515255.4,286046999.4,N
1512515275.3,286047002.3,N
1512515295.1,286047004.1,N
1512515315.8,286047004.4,N
1512515335.7,286047002.2,N
1512515355.5,286047002.3,N
1512515375.4,286046998.6,N
1512515395.2,286046996.5,N
1512515415.0,286047002.8,N
1512515415.9,286047002.8,N
1512515435.8,286047002.5,N
1512515455.6,286047001.7,N
1512515475.4,286046998.6,N
1512515495.3,286047000.0,N
1512515515.1,286046992.2,Y
1512515535.9,286046989.8,P
1512515555.7,286046988.8,N
1512515575.5,286046994.4,N
1512515595.4,286046993.7,N
1512515615.2,286046996.1,N
1512515635.0,286046996.9,N
1512515636.0,286046996.9,N
1512515655.8,286047000.9,N
1512515675.6,286046999.4,N
1512515695.5,286046995.4,N
1512515715.3,286047001.2,N
1512515735.1,286046997.3,N
1512515755.9,286046997.5,N
1512515775.7,286047000.2,N
1512515795.6,286046997.8,N
1512515815.4,286046996.7,N
1512515835.2,286047000.6,N
1512515855.1,286046996.6,N
1512515856.0,286046996.6,N
1512515875.8,286047001.7,N
1512515895.6,286047000.8,N
1512515915.5,286046997.0,N
1512515935.3,286046996.8,N
1512515955.2,286046999.2,N
1512515975.9,286046995.4,N
1512515995.7,286046997.2,N
1512516015.6,286046996.1,N
1512516035.4,286046995.7,N
1512516055.2,286046997.9,N
1512516075.1,286047000.8,N
1512516076.0,286047000.8,N
1512516095.8,286046999.1,N
1512516115.7,286046998.4,N
1512516135.5,286047001.1,N
1512516155.3,286046999.0,N
1512516175.2,286046998.9,N
1512516195.0,286046997.4,N
1512516195.9,286046997.4,N
1512516215.7,286046998.4,N
1512516235.6,286047000.3,N
1512516255.4,286047002.2,N
1512516275.3,286047002.4,N
1512516295.1,286047005.9,N
1512516296.0,286047005.9,N
1512516315.8,286047001.4,N
1512516335.7,286046999.1,N
1512516355.5,286046997.8,N
1512516375.4,286046995.7,N
1512516395.2,286046992.3,N
1512516415.0,286046997.0,N
1512516415.9,286046997.0,N
1512516435.8,286046991.7,N
1512516455.6,286046991.6,N
1512516475.4,286046995.5,N
1512516495.3,286046996.6,N
1512516515.1,286047001.1,N
1512516535.9,286046998.9,N
1512516555.7,286047000.2,N
1512516575.5,286047000.1,N
1512516595.4,286046998.1,N
1512516615.2,286046999.5,N
1512516635.0,286046996.6,N
1512516635.9,286046996.6,N
1512516655.8,286046999.1,N
1512516675.6,286046999.5,N
1512516695.5,286046999.8,N
1512516715.3,286047001.7,N
1512516735.1,286047003.1,N
1512516755.9,286047004.6,N
1512516775.7,286047009.0,N
1512516795.5,286047003.4,N
1512516815.4,286047001.9,N
1512516835.2,286047005.5,N
1512516855.1,286047007.1,N
1512516856.0,286047007.1,N
1512516875.8,286047008.4,N
1512516895.6,286047003.9,N
1512516915.5,286047004.2,N
1512516935.3,286047004.1,N
1512516955.2,286047003.7,N
1512516975.9,286047007.1,N
1512516995.7,286047007.4,N
1512517015.6,286047006.6,N
1512517035.4,286047005.5,N
1512517055.2,286047006.2,N
1512517075.1,286047007.3,N
1512517076.0,286047007.3,N
1512517095.8,286047007.0,N
1512517115.7,286047001.4,N
1512517135.5,286047000.5,N
1512517155.3,286046999.7,N
1512517175.2,286047003.9,N
1512517195.0,286047001.6,N
1512517195.9,286047001.6,N
1512517215.7,286047003.0,N
1512517235.6,286047001.6,N
1512517255.4,286046999.8,N
1512517275.3,286047002.1,N
1512517295.1,286047009.1,Y
1512517315.8,286047005.3,P
1512517335.7,286047002.8,P
1512517355.5,286047000.6,N
1512517375.4,286046997.2,N
1512517395.2,286046994.1,N
1512517415.0,286046998.9,N
1512517415.9,286046998.9,N
1512517435.8,286047002.6,N
1512517455.6,286047001.6,N
1512517475.4,286047004.0,N
1512517495.3,286047000.4,N
1512517515.1,286047000.5,N
1512517535.9,286046998.1,N
1512517555.7,286046999.5,N
1512517575.5,286046995.3,N
1512517595.4,286046993.9,N
1512517615.2,286046995.5,N
1512517635.0,286046996.9,N
1512517635.9,286046996.9,N
1512517655.8,286047000.5,N
1512517675.6,286047002.6,N
1512517695.5,286046998.3,N
1512517715.3,286046993.9,N
1512517735.1,286046994.4,N
1512517755.9,286046990.1,N
1512517775.7,286046993.8,N
1512517795.5,286046999.1,N
1512517815.4,286046999.7,N
1512517835.2,286047001.0,N
1512517855.1,286046999.5,N
1512517856.0,286046999.5,N
1512517875.8,286046998.7,N
1512517895.6,286046999.9,N
1512517915.5,286046996.5,N
1512517935.3,286046997.3,N
1512517955.1,286046996.2,N
1512517975.9,286046995.7,N
1512517995.7,286046994.3,N
1512518015.6,286046993.0,N
1512518035.4,286046991.0,N
1512518055.2,286046993.1,N
1512518075.1,286046994.0,N
1512518076.0,286046994.0,N
1512518095.8,286046996.7,N
1512518115.7,286047001.1,N
1512518135.5,286046999.2,N
1512518155.3,286046994.8,N
1512518175.2,286046991.9,N
1512518195.9,286046991.7,N
1512518215.7,286046994.7,N
1512518235.6,286046997.1,N
1512518255.4,286046998.8,N
1512518275.3,286046995.5,N
1512518295.1,286047001.3,N
1512518296.0,286047001.3,N
1512518315.8,286047002.0,N
1512518335.7,286046998.6,N
1512518355.5,286046999.0,N
1512518375.4,286046997.3,N
1512518395.2,286046995.5,N
